Voltar ao catálogo

NOAA 16 DEB

AtivoPO
NORAD 41064·DEBRIS·🇺🇸 United States

Lançado Sep 21, 2000 de Vandenberg Space Force Base

Loading…

Próximas Passagens (próximas 24 horas)

TLE

AtualizadoSource: Space-Track

Época: Sep 14, 2026, 07:47 UTC

1 41064U 00055X   26257.32453875  .00004761  00000-0  13159-2 0  9993
2 41064  98.8579  39.0191 0010316 318.6876  41.3533 14.47175433560881

Acompanhe NOAA 16 DEB em tempo real com AllMySat

Download on the App Store